EW2209 Weather Reports


Display with metric or nautical units.
time (UTC)temp
F
wind
direction
speed
MPH
gust
MPH
rain 1hr
in
rain 24hr
in
rain mn
in
humidity
%
barometer
mb
20200329052557 41 283 0.0 0.0 0.01 0.01 0.01 91 1018.4
20200329051101 42 282 0.0 1.0 0.01 0.01 0.01 90 1018.3
20200329050556 42 282 0.0 0.0 0.01 0.01 0.01 89 1018.5
20200329050144 42 282 0.0 1.0 0.01 0.01 0.01 89 1018.7
20200329045618 42 282 0.0 1.0 0.01 0.01 0.01 88 1018.7
20200329045103 43 280 0.0 1.0 0.00 0.00 0.00 87 1018.8
20200329044640 43 247 0.0 2.0 0.00 0.00 0.00 86 1018.5
20200329044105 43 240 0.0 2.0 0.00 0.00 0.00 84 1018.3
20200329043550 44 240 0.0 1.0 0.00 0.00 0.00 82 1018.1
20200329043119 44 180 0.0 0.0 0.00 0.00 0.00 80 1018.3
20200329042548 45 204 0.0 0.0 0.00 0.00 0.00 77 1018.5
20200329041049 45 300 0.0 0.0 0.00 0.00 0.00 71 1019.1
20200329040545 46 300 0.0 0.0 0.00 0.00 0.00 71 1019.1
20200329040101 46 300 0.0 0.0 0.00 0.00 0.00 70 1019.0
20200329035543 46 300 0.0 0.0 0.00 0.00 0.00 70 1018.8
20200329035044 46 236 0.0 0.0 0.00 0.00 0.00 71 1018.7
20200329034551 46 232 0.0 0.0 0.00 0.00 0.00 70 1018.5
20200329034043 45 232 0.0 0.0 0.00 0.00 0.00 70 1018.5
20200329033556 45 231 0.0 0.0 0.00 0.00 0.00 70 1018.5
20200329033126 46 231 0.0 0.0 0.00 0.00 0.00 70 1018.5
20200329032543 46 229 0.0 0.0 0.00 0.00 0.00 69 1018.5
20200329031043 46 277 0.0 0.0 0.00 0.00 0.00 69 1018.7
20200329030545 46 285 0.0 0.0 0.00 0.00 0.00 69 1018.7
20200329030136 46 253 0.0 0.0 0.00 0.00 0.00 68 1018.7
20200329025546 46 275 0.0 0.0 0.00 0.00 0.00 68 1019.0
20200329025041 45 149 0.0 0.0 0.00 0.00 0.00 68 1019.0
20200329024634 45 281 0.0 1.0 0.00 0.00 0.00 67 1018.9
20200329024042 45 207 0.0 1.0 0.00 0.00 0.00 67 1019.1
20200329023541 45 217 0.0 0.0 0.00 0.00 0.00 67 1018.9
20200329023059 45 174 0.0 0.0 0.00 0.00 0.00 67 1018.9
20200329022541 45 209 0.0 0.0 0.00 0.00 0.00 67 1019.0
20200329021050 45 268 0.0 0.0 0.00 0.00 0.00 68 1019.1
20200329020542 45 262 0.0 0.0 0.00 0.00 0.00 67 1019.0
20200329020212 45 243 0.0 0.0 0.00 0.00 0.00 66 1019.1
20200329015542 45 271 0.0 0.0 0.00 0.00 0.00 66 1019.2
20200329015042 45 213 0.0 0.0 0.00 0.00 0.00 67 1019.3
20200329014618 45 254 0.0 0.0 0.00 0.00 0.00 66 1019.3
20200329014051 45 257 0.0 0.0 0.00 0.00 0.00 67 1019.2
20200329013541 45 281 0.0 1.0 0.00 0.00 0.00 66 1019.3
20200329013116 45 257 0.0 1.0 0.00 0.00 0.00 66 1019.3
20200329012541 45 272 0.0 0.0 0.00 0.00 0.00 66 1019.3
20200329011052 46 241 0.0 0.0 0.00 0.00 0.00 65 1019.2
20200329010546 46 233 0.0 0.0 0.00 0.00 0.00 64 1019.2
20200329010151 46 229 0.0 0.0 0.00 0.00 0.00 63 1019.1
20200329005540 46 183 0.0 0.0 0.00 0.00 0.00 63 1019.2
20200329005044 46 277 0.0 0.0 0.00 0.00 0.00 63 1019.4
20200329004601 46 295 0.0 1.0 0.00 0.00 0.00 62 1019.4
20200329004120 46 304 0.0 1.0 0.00 0.00 0.00 61 1019.3
20200329003546 46 279 0.0 0.0 0.00 0.00 0.00 61 1019.3
20200329003106 46 268 0.0 0.0 0.00 0.00 0.00 61 1019.3
20200329002545 46 255 0.0 0.0 0.00 0.00 0.00 60 1019.1
20200329001042 47 286 0.0 0.0 0.00 0.00 0.00 58 1019.0
20200329000544 47 250 0.0 1.0 0.00 0.00 0.00 57 1018.9
20200329000115 47 278 0.0 2.0 0.00 0.00 0.00 57 1019.0
20200328235541 47 280 0.0 0.0 0.00 0.00 0.00 56 1018.9
20200328235042 47 290 0.0 1.0 0.00 0.00 0.00 55 1018.9
20200328234618 47 268 0.0 1.0 0.00 0.00 0.00 54 1018.9
20200328234045 47 234 0.0 0.0 0.00 0.00 0.00 53 1018.9
20200328233542 47 190 0.0 1.0 0.00 0.00 0.00 53 1018.9
20200328233110 47 247 0.0 1.0 0.00 0.00 0.00 53 1019.0
20200328232545 48 234 0.0 3.0 0.00 0.00 0.00 52 1018.9
20200328231041 48 220 0.0 4.0 0.00 0.00 0.00 49 1018.5
20200328230543 48 231 0.0 4.0 0.00 0.00 0.00 48 1018.3
20200328230131 48 219 0.0 0.0 0.00 0.00 0.00 47 1018.2
20200328225541 48 262 0.0 0.0 0.00 0.00 0.00 48 1018.1
20200328225040 48 221 0.0 4.0 0.00 0.00 0.00 46 1018.2
20200328224600 48 234 0.0 3.0 0.00 0.00 0.00 47 1018.2
20200328224044 48 236 0.0 3.0 0.00 0.00 0.00 46 1018.1
20200328223540 49 226 0.0 4.0 0.00 0.00 0.00 46 1017.9
20200328223052 49 217 1.0 4.0 0.00 0.00 0.00 45 1018.1
20200328222545 49 232 1.0 4.0 0.00 0.00 0.00 45 1017.8
20200328221045 49 206 0.0 3.0 0.00 0.00 0.00 42 1017.7
20200328220553 50 207 0.0 0.0 0.00 0.00 0.00 44 1017.7
20200328220059 50 233 0.0 0.0 0.00 0.00 0.00 42 1017.5
20200328215541 51 220 0.0 0.0 0.00 0.00 0.00 41 1017.5
20200328215047 51 245 0.0 0.0 0.00 0.00 0.00 40 1017.5
20200328214709 51 226 0.0 0.0 0.00 0.00 0.00 40 1017.6
20200328214040 51 216 0.0 0.0 0.00 0.00 0.00 42 1017.6
20200328213539 51 217 0.0 0.0 0.00 0.00 0.00 41 1017.7
20200328213059 52 217 0.0 0.0 0.00 0.00 0.00 42 1017.6
20200328212538 52 198 0.0 0.0 0.00 0.00 0.00 41 1017.7
20200328211046 52 215 0.0 0.0 0.00 0.00 0.00 41 1017.4
20200328210539 52 176 0.0 0.0 0.00 0.00 0.00 41 1017.2
20200328210055 52 219 0.0 0.0 0.00 0.00 0.00 38 1017.7
20200328205538 52 230 0.0 0.0 0.00 0.00 0.00 39 1017.6
20200328205101 52 242 0.0 0.0 0.00 0.00 0.00 38 1017.4
20200328204606 53 220 0.0 0.0 0.00 0.00 0.00 37 1017.3
20200328204046 53 241 0.0 0.0 0.00 0.00 0.00 38 1017.1
20200328203531 52 182 0.0 0.0 0.00 0.00 0.00 37 1017.1
20200328203137 52 154 0.0 0.0 0.00 0.00 0.00 39 1017.0
20200328202532 52 215 0.0 0.0 0.00 0.00 0.00 39 1017.2
20200328201046 52 252 0.0 0.0 0.00 0.00 0.00 37 1017.0
20200328200527 52 165 0.0 0.0 0.00 0.00 0.00 37 1017.1
20200328200027 53 259 0.0 0.0 0.00 0.00 0.00 39 1017.3
20200328195525 53 215 0.0 0.0 0.00 0.00 0.00 40 1017.2
20200328195033 53 192 0.0 0.0 0.00 0.00 0.00 37 1017.4
20200328194531 52 224 0.0 0.0 0.00 0.00 0.00 37 1017.5
20200328194023 52 212 0.0 0.0 0.00 0.00 0.00 40 1017.7
20200328193522 52 212 0.0 0.0 0.00 0.00 0.00 38 1018.0
20200328193044 52 226 0.0 0.0 0.00 0.00 0.00 38 1018.0
20200328192526 52 227 0.0 0.0 0.00 0.00 0.00 39 1017.8
20200328191021 50 256 0.0 0.0 0.00 0.00 0.00 38 1018.2
20200328190521 50 265 0.0 0.0 0.00 0.00 0.00 41 1018.2
20200328190114 50 86 0.0 0.0 0.00 0.00 0.00 40 1018.3
20200328185536 50 105 0.0 0.0 0.00 0.00 0.00 41 1018.3
20200328185037 51 120 0.0 0.0 0.00 0.00 0.00 41 1018.2
20200328184522 51 11 0.0 0.0 0.00 0.00 0.00 39 1018.4
20200328184019 51 153 0.0 0.0 0.00 0.00 0.00 40 1018.3
20200328183521 50 153 0.0 0.0 0.00 0.00 0.00 45 1018.2
20200328183022 50 196 0.0 0.0 0.00 0.00 0.00 41 1018.1
20200328182516 50 203 0.0 0.0 0.00 0.00 0.00 42 1018.1
20200328181016 49 236 0.0 0.0 0.00 0.00 0.00 42 1018.2
20200328180515 48 135 0.0 0.0 0.00 0.00 0.00 43 1018.3
20200328180016 48 96 0.0 0.0 0.00 0.00 0.00 42 1018.5
20200328175516 48 115 0.0 0.0 0.00 0.00 0.00 42 1018.7
20200328175015 48 49 0.0 0.0 0.00 0.00 0.00 43 1018.8
20200328174515 48 130 0.0 0.0 0.00 0.00 0.00 43 1019.1
20200328174014 48 91 0.0 0.0 0.00 0.00 0.00 43 1019.2
20200328173520 48 90 0.0 0.0 0.00 0.00 0.00 43 1019.1
20200328173030 48 102 0.0 0.0 0.00 0.00 0.00 43 1019.2
20200328172512 48 85 0.0 0.0 0.00 0.00 0.00 43 1019.3
20200328171012 47 99 0.0 0.0 0.00 0.00 0.00 42 1019.5
20200328170517 47 125 0.0 0.0 0.00 0.00 0.00 42 1019.5
20200328170024 47 127 0.0 0.0 0.00 0.00 0.00 41 1019.5
20200328165533 46 122 0.0 0.0 0.00 0.00 0.00 43 1019.6
20200328165012 46 120 0.0 0.0 0.00 0.00 0.00 42 1019.5
20200328164523 46 113 0.0 0.0 0.00 0.00 0.00 43 1019.5
20200328164008 46 124 0.0 0.0 0.00 0.00 0.00 43 1019.6
20200328163508 45 122 0.0 0.0 0.00 0.00 0.00 43 1019.5
20200328163015 45 86 0.0 0.0 0.00 0.00 0.00 42 1019.5
20200328162510 45 109 0.0 0.0 0.00 0.00 0.00 45 1019.5
20200328161013 44 105 0.0 0.0 0.00 0.00 0.00 40 1019.6
20200328160508 44 99 0.0 0.0 0.00 0.00 0.00 48 1019.8
20200328160025 44 124 0.0 0.0 0.00 0.00 0.00 52 1019.9
20200328155508 44 116 0.0 0.0 0.00 0.00 0.00 53 1019.9
20200328155011 44 86 0.0 0.0 0.00 0.00 0.00 49 1020.0
20200328154528 44 135 0.0 0.0 0.00 0.00 0.00 47 1020.1
20200328154007 44 129 0.0 0.0 0.00 0.00 0.00 52 1020.1
20200328153509 44 118 0.0 0.0 0.00 0.00 0.00 54 1020.1
20200328153015 44 206 0.0 0.0 0.00 0.00 0.00 56 1020.1
20200328152505 44 153 0.0 0.0 0.00 0.00 0.00 61 1020.2
20200328151002 42 112 0.0 0.0 0.00 0.00 0.00 61 1020.6
20200328150506 41 130 0.0 0.0 0.00 0.00 0.00 65 1020.6
20200328150259 41 141 0.0 0.0 0.00 0.00 0.00 66 1020.6
20200328145608 40 129 0.0 0.0 0.00 0.00 0.00 66 1020.6
20200328145103 40 77 0.0 0.0 0.00 0.00 0.00 67 1020.4
20200328144637 40 108 0.0 0.0 0.00 0.00 0.00 67 1020.3
20200328143557 40 120 0.0 0.0 0.00 0.00 0.00 71 1020.2
20200328143208 39 134 0.0 0.0 0.00 0.00 0.00 73 1020.2
20200328142618 39 134 0.0 0.0 0.00 0.00 0.00 73 1020.2
20200328142101 40 101 0.0 0.0 0.00 0.00 0.00 71 1020.2
20200328141113 40 84 0.0 0.0 0.00 0.00 0.00 71 1020.2
20200328140600 40 122 0.0 0.0 0.00 0.00 0.00 71 1020.1
20200328140120 40 137 0.0 0.0 0.00 0.00 0.00 73 1020.3
20200328135555 39 139 0.0 0.0 0.00 0.00 0.00 72 1020.4
20200328135055 40 86 0.0 0.0 0.00 0.00 0.00 70 1020.4
20200328134611 39 139 0.0 0.0 0.00 0.00 0.00 72 1020.5
20200328134052 38 162 0.0 0.0 0.00 0.00 0.00 76 1020.4
20200328133550 37 219 0.0 0.0 0.00 0.00 0.00 81 1020.2
20200328133110 36 122 0.0 0.0 0.00 0.00 0.00 83 1020.2
20200328132547 35 129 0.0 0.0 0.00 0.00 0.00 84 1020.1
20200328132050 34 108 0.0 0.0 0.00 0.00 0.00 85 1020.2
20200328131046 34 108 0.0 0.0 0.00 0.00 0.00 85 1020.1
20200328130546 34 132 0.0 0.0 0.00 0.00 0.00 85 1020.1
20200328130052 34 134 0.0 0.0 0.00 0.00 0.00 85 1020.1
20200328125601 34 81 0.0 0.0 0.00 0.00 0.00 86 1020.1
20200328125052 33 98 0.0 0.0 0.00 0.00 0.00 85 1020.1
20200328124548 33 98 0.0 0.0 0.00 0.00 0.00 86 1020.3
20200328124044 33 122 0.0 0.0 0.00 0.00 0.00 86 1020.0
20200328123547 33 122 0.0 0.0 0.00 0.00 0.00 88 1020.0
20200328123055 32 89 0.0 0.0 0.00 0.00 0.00 89 1020.2
20200328122541 32 84 0.0 0.0 0.00 0.00 0.00 88 1019.9
20200328122041 32 111 0.0 0.0 0.00 0.00 0.00 89 1020.0
20200328121043 32 109 0.0 0.0 0.00 0.00 0.00 89 1020.0
20200328120542 31 109 0.0 0.0 0.00 0.00 0.00 88 1020.0
20200328120048 31 72 0.0 0.0 0.00 0.00 0.00 87 1019.9
20200328115607 31 307 0.0 0.0 0.00 0.00 0.00 88 1020.0
20200328115046 30 307 0.0 0.0 0.00 0.00 0.00 91 1020.2
20200328114601 29 307 0.0 0.0 0.00 0.00 0.00 92 1020.1
20200328114037 27 307 0.0 0.0 0.00 0.00 0.00 92 1020.4
20200328113538 27 307 0.0 0.0 0.00 0.00 0.00 92 1020.3
20200328113055 27 307 0.0 0.0 0.00 0.00 0.00 93 1020.4
20200328112541 27 307 0.0 0.0 0.00 0.00 0.00 94 1020.3
20200328112036 24 307 0.0 0.0 0.00 0.00 0.00 94 1019.9
20200328111045 24 307 0.0 0.0 0.00 0.00 0.00 94 1019.9
20200328110538 23 307 0.0 0.0 0.00 0.00 0.00 95 1019.9
20200328110156 23 307 0.0 0.0 0.00 0.00 0.00 94 1020.0
20200328105555 22 307 0.0 0.0 0.00 0.00 0.00 94 1019.8
20200328105036 22 307 0.0 0.0 0.00 0.00 0.00 94 1019.7
20200328104546 23 307 0.0 0.0 0.00 0.00 0.00 94 1019.7
20200328104036 23 307 0.0 0.0 0.00 0.00 0.00 94 1019.6
20200328103535 23 307 0.0 0.0 0.00 0.00 0.00 95 1019.6
20200328103057 23 307 0.0 0.0 0.00 0.00 0.00 95 1019.7
20200328102538 22 307 0.0 0.0 0.00 0.00 0.00 94 1019.6
20200328102035 22 307 0.0 0.0 0.00 0.00 0.00 94 1019.4
20200328101037 22 307 0.0 0.0 0.00 0.00 0.00 93 1019.4
20200328100040 23 307 0.0 0.0 0.00 0.00 0.00 93 1019.4
20200328095537 23 307 0.0 0.0 0.00 0.00 0.00 94 1019.5
20200328095031 23 307 0.0 0.0 0.00 0.00 0.00 94 1019.5
20200328094546 23 307 0.0 0.0 0.00 0.00 0.00 94 1019.5
20200328094031 23 307 0.0 0.0 0.00 0.00 0.00 94 1019.4
20200328093531 23 307 0.0 0.0 0.00 0.00 0.00 94 1019.4
20200328093050 23 307 0.0 0.0 0.00 0.00 0.00 93 1019.3
20200328092529 23 307 0.0 0.0 0.00 0.00 0.00 94 1019.3
20200328092029 24 307 0.0 0.0 0.00 0.00 0.00 94 1019.2
20200328091057 24 307 0.0 0.0 0.00 0.00 0.00 94 1019.2
20200328090528 24 307 0.0 0.0 0.00 0.00 0.00 93 1019.0
20200328090034 24 307 0.0 0.0 0.00 0.00 0.00 93 1019.0
20200328085532 24 307 0.0 0.0 0.00 0.00 0.00 93 1019.0
20200328085030 24 307 0.0 0.0 0.00 0.00 0.00 93 1019.1
20200328084541 24 307 0.0 0.0 0.00 0.00 0.00 93 1019.0
20200328084027 25 307 0.0 0.0 0.00 0.00 0.00 93 1018.9
20200328083531 25 307 0.0 1.0 0.00 0.00 0.00 93 1018.8
20200328083031 25 7 0.0 1.0 0.00 0.00 0.00 94 1018.6
20200328082527 24 63 0.0 1.0 0.00 0.00 0.00 92 1018.6
20200328082025 25 101 0.0 1.0 0.00 0.00 0.00 94 1018.6
20200328081027 25 101 0.0 1.0 0.00 0.00 0.00 93 1018.6
20200328080527 25 101 0.0 0.0 0.00 0.00 0.00 93 1018.6
20200328080114 25 101 0.0 0.0 0.00 0.00 0.00 93 1018.6
20200328075526 25 101 0.0 0.0 0.00 0.00 0.00 93 1018.7
20200328075026 25 101 0.0 0.0 0.00 0.00 0.00 93 1018.9
20200328074638 25 101 0.0 0.0 0.00 0.00 0.00 93 1019.0
20200328074025 25 101 0.0 0.0 0.00 0.00 0.00 92 1019.0
20200328073526 25 101 0.0 0.0 0.00 0.00 0.00 92 1018.9
20200328073033 25 101 0.0 0.0 0.00 0.00 0.00 92 1018.9
20200328072531 25 101 0.0 0.0 0.00 0.00 0.00 92 1019.1
20200328072024 25 101 0.0 0.0 0.00 0.00 0.00 91 1019.1
20200328071024 25 101 0.0 0.0 0.00 0.00 0.00 91 1019.2
20200328070545 26 101 0.0 0.0 0.00 0.00 0.00 91 1019.1
20200328070132 26 1 0.0 0.0 0.00 0.00 0.00 92 1019.0
20200328065527 26 1 0.0 0.0 0.00 0.00 0.00 92 1019.1
20200328065028 25 2 0.0 0.0 0.00 0.00 0.00 92 1019.1
20200328064532 26 2 0.0 0.0 0.00 0.00 0.00 91 1019.1
20200328064022 26 2 0.0 0.0 0.00 0.00 0.00 91 1019.1
20200328063528 26 2 0.0 0.0 0.00 0.00 0.00 91 1018.8
20200328063130 26 2 0.0 0.0 0.00 0.00 0.00 92 1019.0
20200328062525 26 2 0.0 0.0 0.00 0.00 0.00 92 1018.9
20200328062019 26 1 0.0 0.0 0.00 0.00 0.00 91 1018.9
20200328061024 26 2 0.0 0.0 0.00 0.00 0.00 91 1018.8
20200328060529 27 2 0.0 0.0 0.00 0.00 0.00 91 1018.8
20200328060048 27 2 0.0 0.0 0.00 0.00 0.00 92 1018.9
20200328055528 26 2 0.0 0.0 0.00 0.00 0.00 92 1018.8
20200328055020 26 2 0.0 0.0 0.00 0.00 0.00 91 1018.8
20200328054535 27 2 0.0 0.0 0.00 0.00 0.00 91 1018.8
20200328054018 27 2 0.0 0.0 0.00 0.00 0.00 91 1018.7
20200328053517 27 1 0.0 0.0 0.00 0.00 0.00 90 1018.8
20200328053057 27 2 0.0 0.0 0.00 0.00 0.00 91 1018.8